[Iaude] MPEC L110: 2024 LW2 [a=1.28,e=0.23,i=11.1,H=26.0]

mpec at cfa.harvard.edu mpec at cfa.harvard.edu
Mon Jun 10 19:30:21 EDT 2024


M.P.E.C. 2024-L110                                Issued 2024 June 10, 23:28 UT

     The Minor Planet Electronic Circulars contain information on unusual
         minor planets, routine data on comets and natural satellites,
         and occasional editorial announcements.  They are published
    on behalf of Division F of the International Astronomical Union by the
          Minor Planet Center, Smithsonian Astrophysical Observatory,
                          Cambridge, MA 02138, U.S.A.
			  
             Prepared using the Tamkin Foundation Computer Network

                              MPC at CFA.HARVARD.EDU
            URL https://www.minorplanetcenter.net/    ISSN 1523-6714

                                    2024 LW2                                    


Observations:
     K24L02W*KB2024 06 05.05649314 53 58.276-36 00 05.12         19.6 VZEL110Y05
     K24L02W KB2024 06 05.06174114 54 00.753-35 57 50.47         19.8 VZEL110Y05
     K24L02W KB2024 06 05.06700514 54 03.279-35 55 34.69         18.9 VZEL110Y05
     K24L02W  C2024 06 06.37364515 11 20.194-23 53 03.57         18.23GVEL110F52
     K24L02W  C2024 06 06.38483315 11 27.601-23 44 59.52         18.28GVEL110F52
     K24L02W  C2024 06 08.27486415 47 14.561+08 24 52.54         17.68RUEL110I41
     K24L02W  C2024 06 08.27521115 47 14.847+08 25 18.96         17.68RUEL110I41
     K24L02W  C2024 06 08.41201515 49 56.573+11 22 19.42         17.70RUEL110I41
     K24L02W  C2024 06 08.41236215 49 56.976+11 22 47.35         17.70RUEL110I41
     K24L02W  C2024 06 09.23449616 12 39.441+29 11 55.12         18.59gUEL110I41
     K24L02W  C2024 06 09.23484416 12 39.964+29 12 22.87         18.59gUEL110I41
     K24L02W  C2024 06 09.23546316 12 40.818+29 13 09.29         18.57gUEL110I41
     K24L02W  C2024 06 09.23581016 12 41.302+29 13 34.22         18.57gUEL110I41
     K24L02W 1C2024 06 10.38827516 50 39.178+49 37 26.26         18.52GVEL110703
     K24L02W 1C2024 06 10.39053616 50 43.584+49 39 19.40               VEL110703
     K24L02W 1C2024 06 10.39279816 50 48.275+49 41 10.86         18.08GVEL110703
     K24L02W 1C2024 06 10.39505916 50 52.768+49 43 04.37         18.92GVEL110703
     K24L02W KB2024 06 10.54233616 57 32.993+51 45 16.26         19.9 VZEL110Q06
     K24L02W KB2024 06 10.54975516 57 48.221+51 51 18.88         18.5 VZEL110Q06
     K24L02W KB2024 06 10.55711616 58 03.463+51 57 17.30         18.7 VZEL110Q06
     K24L02W KC2024 06 10.81822 17 09 03.98 +55 10 37.0          19.2 GVEL110C82
     K24L02W KC2024 06 10.82566 17 09 20.90 +55 16 03.7          19.4 GVEL110C82
     K24L02W KB2024 06 10.90770 17 12 32.62 +56 13 31.5          18.9 GXEL110K19
     K24L02W KB2024 06 10.90945 17 12 36.48 +56 14 43.4          18.6 GXEL110K19
     K24L02W KB2024 06 10.91125 17 12 40.58 +56 15 59.9          19.2 GXEL110K19
     K24L02W KC2024 06 10.92687617 13 18.936+56 25 15.17         19.6 GVEL110J95
     K24L02W KC2024 06 10.92888017 13 23.578+56 26 37.03         19.0 GVEL110J95
     K24L02W KC2024 06 10.93088817 13 28.286+56 27 59.76         19.2 GVEL110J95

Observer details:
703 Catalina Sky Survey.  Observer T. Beuden.  Measurers T. Beuden, V. F.
    Carvajal, D. Fay, J. B. Fazekas, D. C. Fuls, A. R. Gibbs, A. D. Grauer, H.
    Groeller, J. K. Hogan, R. A. Kowalski, S. M. Larson, G. J. Leonard, D.
    Rankin, R. L. Seaman, F. C. Shelly, K. W. Wierzchos.  0.68-m Schmidt + 10K
    CCD.
C82 Osservatorio Astronomico Nastro Verde, Sorrento.  Observer N. Ruocco.
    0.35-m f/6.3  Schmidt-Cassegrain + CCD.
F52 Pan-STARRS 2, Haleakala.  Observers J. Herman, T. Lowe, P. Minguez, A.
    Schultz, I. Smith.  Measurers K. Chambers, T. de Boer, J. Fairlamb, H.
    Gao, M. Huber, C.-C. Lin, E. Magnier, Y. Ramanjooloo, R. Wainscoat, R.
    Weryk.  1.8-m Ritchey-Chretien + CCD.
I41 Palomar Mountain--ZTF.  Observers G. Helou, T. A. Prince, K.
    Venkataramani, Q.-Z. Ye, Z. T. F. Collaboration, G. Cahaan.  Measurers D.
    A. Duev, H.-W. Lin, A. A. Mahabal, F. J. Masci, Q.-Z. Ye.  1.2-m f/2.4
    Schmidt + ZTF Camera.
J95 Great Shefford.  Observer P. Birtwhistle.  0.41-m f/6.3 Schmidt-Cassegrain
    + CCD.
K19 PASTIS Observatory, Banon.  Observer C. Demeautis.  0.28-m f/2.2 reflector
    + CMO.
Q06 Tarui Observatory, Tarui.  Observer H. Watanabe.  0.35-m f/1.9 Schmidt-
    Cassegrain + CMO.
Y05 SONEAR Wykrota-CEAMIG, Serra da Piedade.  Observers C. Jacques, A.
    Caetano, E. Pimentel.  Measurer C. Jacques.  0.45-m f/2.9 reflector + CMO.

Orbital elements:
2024 LW2                                                 Earth MOID = 0.0104 AU
Epoch 2024 Mar. 31.0 TT = JDT 2460400.5                 Veres                   
M 288.51498              (2000.0)            P               Q                  
n   0.68165841     Peri.   40.43374     +0.43177592     +0.88227874             
a   1.2786691      Node   255.90272     -0.86938997     +0.35171159             
e   0.2325235      Incl.   11.14633     -0.24027200     +0.31286288             
P   1.45           H   26.01          G   0.15           U   7                  
Residuals in seconds of arc
240605 Y05  0.7-  0.3-    240609 I41  1.1+  0.5+    240610 C82 (1.6+  0.4-)
240605 Y05  0.6-  0.2-    240609 I41  0.4+  0.2+    240610 C82 (0.3+  1.2-)
240605 Y05  0.1-  0.1-    240609 I41  0.0   1.0-    240610 K19  0.0   0.9+
240606 F52  0.1-  0.1-    240610 703  0.9+  0.3-    240610 K19  1.0-  0.0
240606 F52  0.0   0.1+    240610 703  0.4-  0.1+    240610 K19 (1.0-  1.7+)
240608 I41 (1.6+  0.3-)   240610 703  1.0+  1.1-    240610 J95  0.0   0.3+
240608 I41  0.0   0.7-    240610 703  0.4+  0.1+    240610 J95  0.1-  0.3-
240608 I41  0.1-  0.9+    240610 Q06  0.4-  0.6-    240610 J95  0.3+  0.0
240608 I41 (0.6-  1.9+)   240610 Q06  0.8-  1.0-
240609 I41  0.9+  1.1-    240610 Q06  0.3+  0.9-

Ephemeris:
2024 LW2                 a,e,i = 1.28, 0.23, 11                  q = 0.9813
Date    TT    R. A. (2000) Decl.     Delta      r    Elong.  Phase     V
2024 05 11    13 53 20.3 -61 00 19   0.1303  1.1054   134.6    40.5    23.4
...
2024 05 26    14 00 59.2 -58 03 40   0.06212 1.0586   136.1    41.5    21.7
...
2024 06 03    14 34 39.1 -46 12 38   0.02760 1.0369   144.5    34.6    19.7
...
2024 06 09    16 05 42.1 +24 15 21   0.01128 1.0225   130.4    49.2    18.2
2024 06 10    16 36 57.3 +43 35 18   0.01263 1.0202   112.9    66.5    18.9
2024 06 11    17 16 05.9 +57 12 33   0.01520 1.0180    99.7    79.4    19.7
...
2024 06 17    21 54 54.9 +74 57 02   0.03835 1.0060    74.0   103.9    22.8
...
2024 06 25    23 52 54.9 +72 23 34   0.07231 0.9934    69.5   106.6    24.3
...
2024 07 10    00 56 16.0 +69 49 56   0.1344  0.9812    71.0   101.6    25.3

M. P. C. Staff               (C) Copyright 2024 MPC           M.P.E.C. 2024-L110





More information about the Iaude mailing list